Rbgn^[z[y[W
メイン
   新天体発見情報
     Comet P/2024 O2 (PANSTARRS)
投稿するにはまず登録を

スレッド表示 | 新しいものから 前のトピック | 次のトピック | 下へ
投稿者 スレッド
佐藤裕久
投稿日時: 2024-8-16 23:12
モデレータ
登録日: 2005-6-12
居住地: 日本
投稿: 2608
オンライン
Comet P/2024 O2 (PANSTARRS)

Yudish Ramanjooloo (ハワイ大学天文研究所)の通報によると、7月28日、HaleakalaにあるPan-
STARRS1の1.8-m Ritchey-Chretien 反射望遠鏡で得た3枚の45-秒のw-バンドサーベイ画像から彗星
を発見した。
1".6-1".7のシーイングで、2".1 (半値全幅:FWHM)の拡散したコマが見え、p.a. 約345-350°に
わたって2"の広がった尾がある。
R. Weryk (西オンタリオ大学,物理および天文学科)は、7月29.51日UT、Maunakeaにある3.6-m 
Canada-France-Hawaii望遠鏡で得た、3枚の60-秒 gri-バンド画像から、非常に集光した1".2(半値
全幅:FWHM)の頭部が見え、p.a. 240°に向かって30"以上の尾がある。
Werykらが、8月1.6日、0".7のシーイングで得た、3つの類似したCFHTのフォローアップ露出では、
1".0の頭部が見え、p.a. 240°に30"以上の明確な尾がある。この彗星の、発見前の画像は、6月
30.6日、HaleakalaのPan-STARRS2 1.8-m Ritchey-Chretien 反射望遠鏡で得られた(20.3-21.2等)。
佐藤英貴氏(東京都文京区, 7月30.66日UT、120-秒露出8枚のスタック, 0.51-m f/6.8 アストログラ
フ, Siding Spring, NSW, オーストラリア, 遠隔操作: 強く集光した 6"のコマが見え、p.a. 255°
に向かって10" の尾がある。3".2の円形範囲で測定した光度は20.3等であった)によって彗星状と
観測された。

彗星機能の報告は次のとおり、

OC   Date        Reporter           Coma    Tail    PA          Exposures
T14  2024-07-29  R. Weryk           0".3     30"    240            3x60s
Q62  2024-07-29  H. Sato            6"       10"    255            8x120s
K93  2024-08-02  J. D. Armstrong    4"       11"    245
T12  2024-08-03  R. Weryk           0".7     20"    240            2x300s

発見位置は次のとおり、

     2024 UT             R.A. (2000) Decl.       Mag.
     July 28.53543   23 50 18.04   -21 59 39.5   20.8
          28.54729   23 50 17.81   -21 59 39.3   21.4
          28.56723   23 50 17.44   -21 59 39.3   20.9

MPCの楕円軌道要素、位置推算表は次のとおり、

Orbital elements:
    P/2024 O2 (PANSTARRS)                                                       
Epoch 2024 Oct. 17.0 TT = JDT 2460600.5                                         
T 2024 Apr. 20.75618 TT                                 Rudenko                 
q   3.6982237            (2000.0)            P               Q                  
n   0.04915236     Peri.  310.88895     +0.72830122     +0.68285152             
a   7.3808512      Node     6.80060     -0.38569122     +0.47767772             
e   0.4989435      Incl.   28.97791     -0.56640941     +0.55275474             
P  20.1                                                                         
From 26 observations 2024 June 30-Aug. 3, mean residual 0".1.                   
                                                                                
Ephemeris:
Date    TT    R. A. (2000) Decl.     Delta      r    Elong.  Phase   m1
2024 07 08    23 52 25.0 -22 06 48   3.1825  3.7310   115.2    14.3  20.2
...
2024 07 23    23 51 39.1 -21 59 47   3.0265  3.7446   128.5    12.3  20.1
...
2024 07 31    23 49 30.9 -21 59 48   2.9570  3.7528   135.9    10.9  20.1
...
2024 08 06    23 47 08.5 -22 00 30   2.9129  3.7594   141.4     9.7  20.1
2024 08 07    23 46 41.1 -22 00 37   2.9063  3.7606   142.3     9.5  20.1
2024 08 08    23 46 12.7 -22 00 44   2.8998  3.7617   143.3     9.3  20.1
...
2024 08 14    23 43 02.2 -22 00 58   2.8662  3.7687   148.7     8.0  20.0
...
2024 08 22    23 38 01.0 -21 59 12   2.8349  3.7787   155.5     6.4  20.0
...
2024 09 06    23 26 57.4 -21 44 08   2.8223  3.7990   163.3     4.4  20.0

(MPEC 2024-P90、CBET 5428)

スレッド表示 | 新しいものから 前のトピック | 次のトピック | トップ

投稿するにはまず登録を
 
© 1999 Tsutomu Seki.